STARLINK-33767, 63722

Orbit data source: Space-Track

STARLINK-33767, 63722 is a payload satellite owned by SpaceX/Seattle (US) in LEO that was launched on Mon, 28 Apr 2025 UTC via an FALCON 9 launch vehicle from the Air Force Western Test Range (AFWTR). Payload-class satellites include a variety of spacecraft equipped with specific instruments for various scientific and technological missions. These include communications satellites like Starlink; space stations such as the ISS; scientific satellites like the Hubble; Earth observation satellites from companies like Planet Labs, Umbra, and HawkEye 360; GPS; miniature CubeSats for education and research; and military/defense satellites.

Loading next visibility...
Identifier
63722, 2025-087AB
Orbit
LEO
Country
Flag of USUS
Related business
Manufacturer
SpaceX/Seattle
Mission
Operational Commercial Communications
Bus & Motor
STARLINK V2MO, Unknown motor
Mass
575 kg wet, ~530 kg dry
Launch date (UTC)
2025-04-28 (8 months ago)
Launch vehicle
FALCON 9
Launch site
Air Force Western Test Range (AFWTR)
Object type
Payload
Rocket body
Debris
Shape & HBR
Box + 2 Pan, 17.7 m
Radar Cross Section
36.964 m², Large (>1 m²)

Expand to show TLE details & history
Last TLE update: 8 hours ago

TLE from 8 hours ago
0 STARLINK-33767
1 63722U 25087AB  25346.96686369  .00058429  00000-0  19688-2 0  9997
2 63722  53.1601 262.2515 0001532  69.6065 290.5100 15.30209842 35924
Epoch: 2025-12-12T23:12Z
TLE epoch observation values (Epoch: 2025-12-12T23:12:17.022Z)
Latitude
-0.00006°
Longitude
-167.72036°
Altitude
475.718 km
Speed
7.629 km/s
True Right ascension
17h 29m 00s
True Declination
0° 00' 00"
Sunlit
Object was in daylight at epoch
Visualization orbit readout
Latitude
Unknown
Longitude
Unknown
Altitude
Unknown
Speed
Unknown
Apparent Right ascension
Unknown
Apparent Declination
Unknown
Sunlit
N/A
Visualization observer readout
Local Sidereal Time
05:21:15
Azimuth
Unknown
Elevation
Unknown
Doppler factor
Unknown
Orbital elements
Apogee altitude
476.492 km
Perigee altitude
474.392 km
Semi-major axis
6,853.579 km
Eccentricity
0.00015
Inclination
53.1601°
RAAN
262.2515°
Arg. of periapsis
69.6065°
True anomaly
290.49356°
Mean anomaly
290.51°
Eccentric anomaly
290.50178°
Mean motion
3.82531 °/min
Orbital period
94.11 mins
BSTAR
0.0019688
Loading maneuver chart data...
Computing Atmospheric mass density...
Loading historical data...
Loading historical data...
Loading historical data...
Loading historical data...
Loading historical data...
Loading historical data...
Loading historical data...

Documentation

Showing up to 5 results
|